DW9234 Weather Reports


Display with metric or nautical units.
time (UTC)temp
F
wind
direction
speed
MPH
gust
MPH
rain 1hr
in
rain 24hr
in
rain mn
in
humidity
%
barometer
mb
20260508052004 55 175 0.0 2.0 0.00 0.00 0.00 58 1012.1
20260508051004 55 173 1.0 5.0 0.00 0.00 0.00 58 1012.0
20260508050004 55 265 1.0 5.0 0.00 0.00 0.00 58 1011.9
20260508044005 55 267 0.0 4.0 0.00 0.00 0.00 57 1011.9
20260508043004 55 277 0.0 4.0 0.00 0.00 0.00 57 1011.8
20260508042004 55 259 0.0 2.0 0.00 0.00 0.00 57 1011.8
20260508041004 55 275 0.0 1.0 0.00 0.00 0.00 57 1011.8
20260508040004 55 275 0.0 2.0 0.00 0.00 0.06 56 1011.9
20260508035004 55 262 0.0 2.0 0.00 0.00 0.06 56 1011.7
20260508034005 55 281 0.0 4.0 0.00 0.00 0.06 56 1011.7
20260508032004 55 311 1.0 2.0 0.00 0.00 0.06 56 1011.7
20260508031004 55 292 0.0 4.0 0.00 0.00 0.06 56 1011.7
20260508030004 55 360 1.0 3.0 0.00 0.00 0.06 56 1011.7
20260508022004 56 34 2.0 4.0 0.00 0.00 0.06 55 1011.8
20260508021004 56 121 0.0 5.0 0.00 0.00 0.06 55 1011.7
20260508020005 56 320 2.0 7.0 0.00 0.00 0.06 55 1011.7
20260508015005 57 53 1.0 5.0 0.00 0.00 0.06 54 1011.6
20260508014003 57 58 4.0 4.0 0.00 0.00 0.06 52 1011.6
20260508013004 58 283 1.0 2.0 0.00 0.00 0.06 50 1011.4
20260508011004 58 355 0.0 5.0 0.00 0.00 0.06 45 1010.9
20260508010004 58 274 0.0 2.0 0.00 0.00 0.06 41 1010.8
20260508005003 58 226 0.0 0.0 0.00 0.00 0.06 43 1010.7
20260508004004 59 226 0.0 0.0 0.00 0.00 0.06 42 1010.6
20260508003004 59 226 0.0 0.0 0.00 0.00 0.06 41 1010.5
20260508002004 60 226 0.0 0.0 0.00 0.00 0.06 40 1010.3
20260508001005 60 226 0.0 0.0 0.00 0.00 0.06 40 1010.4
20260508000004 61 226 0.0 0.0 0.00 0.00 0.06 38 1010.3
20260507235004 62 226 0.0 0.0 0.00 0.00 0.06 37 1010.1
20260507234005 62 226 0.0 2.0 0.00 0.00 0.06 36 1010.0
20260507233004 63 229 0.0 1.0 0.00 0.00 0.06 35 1010.0
20260507232004 63 229 0.0 1.0 0.00 0.00 0.06 33 1009.9
20260507231004 64 229 1.0 4.0 0.00 0.00 0.06 31 1010.0
20260507230006 64 228 2.0 5.0 0.00 0.00 0.06 31 1009.8
20260507225004 64 279 0.0 4.0 0.00 0.00 0.06 30 1009.7
20260507224004 64 291 0.0 4.0 0.00 0.00 0.06 29 1009.8
20260507223003 65 38 0.0 2.0 0.00 0.00 0.06 28 1009.6
20260507222004 65 38 1.0 5.0 0.00 0.00 0.06 28 1009.7
20260507221003 65 234 0.0 5.0 0.00 0.00 0.06 28 1009.6
20260507220004 65 270 8.0 9.0 0.00 0.00 0.06 28 1009.7
20260507215004 66 265 5.0 6.0 0.00 0.00 0.06 28 1009.7
20260507214005 66 187 0.0 9.0 0.00 0.00 0.06 27 1009.8
20260507213003 66 296 0.0 9.0 0.00 0.00 0.06 26 1010.1
20260507212005 67 86 0.0 6.0 0.00 0.00 0.06 26 1009.9
20260507211004 67 257 0.0 8.0 0.00 0.00 0.06 27 1009.9
20260507205004 68 360 1.0 6.0 0.00 0.00 0.06 26 1009.7
20260507203004 68 292 1.0 5.0 0.00 0.00 0.06 27 1009.7
20260507202004 68 269 2.0 8.0 0.00 0.00 0.06 25 1009.7
20260507201004 68 102 1.0 5.0 0.00 0.00 0.06 27 1009.7
20260507195005 68 275 0.0 5.0 0.00 0.00 0.06 26 1009.8
20260507194004 68 349 1.0 6.0 0.00 0.00 0.06 28 1010.1
20260507193004 68 129 2.0 8.0 0.00 0.00 0.06 29 1010.2
20260507192004 68 300 0.0 6.0 0.00 0.00 0.06 29 1010.2
20260507191004 68 319 1.0 5.0 0.00 0.00 0.06 31 1010.4
20260507190005 68 288 1.0 9.0 0.00 0.00 0.06 28 1010.4
20260507185004 68 221 1.0 7.0 0.00 0.00 0.06 33 1010.7
20260507183004 68 78 2.0 6.0 0.00 0.00 0.06 29 1011.0
20260507182004 67 31 2.0 5.0 0.00 0.00 0.06 31 1011.1
20260507181003 67 271 0.0 5.0 0.00 0.00 0.06 31 1010.9
20260507180004 66 268 1.0 5.0 0.00 0.00 0.06 34 1010.9
20260507175005 66 269 1.0 5.0 0.00 0.00 0.06 38 1010.9
20260507173004 66 260 1.0 7.0 0.00 0.00 0.06 34 1011.5
20260507170004 64 161 0.0 4.0 0.00 0.00 0.06 42 1012.1
20260507165004 63 52 0.0 5.0 0.00 0.00 0.06 40 1012.2
20260507164004 62 73 0.0 4.0 0.00 0.00 0.06 42 1012.3
20260507163003 60 275 0.0 0.0 0.00 0.00 0.06 41 1012.6
20260507162003 60 271 0.0 1.0 0.00 0.00 0.06 40 1012.6
20260507161003 61 95 0.0 2.0 0.00 0.00 0.06 46 1013.0
20260507160004 60 174 0.0 0.0 0.00 0.00 0.06 49 1013.0
20260507155004 58 186 0.0 0.0 0.00 0.00 0.06 51 1012.9
20260507154004 57 250 0.0 0.0 0.00 0.00 0.06 52 1013.1
20260507152004 57 57 0.0 0.0 0.00 0.00 0.06 53 1013.4
20260507150005 56 92 0.0 0.0 0.00 0.00 0.06 54 1013.6
20260507143004 55 60 0.0 0.0 0.00 0.00 0.06 56 1013.9
20260507142004 54 33 0.0 0.0 0.00 0.00 0.06 59 1014.0
20260507141003 54 48 0.0 0.0 0.00 0.00 0.06 61 1014.0
20260507140004 54 72 0.0 0.0 0.00 0.00 0.06 61 1013.9
20260507135003 53 23 0.0 0.0 0.00 0.00 0.06 65 1014.1
20260507134005 53 49 0.0 0.0 0.00 0.00 0.06 66 1014.1
20260507133004 52 59 0.0 0.0 0.00 0.00 0.06 68 1014.1
20260507131004 52 73 0.0 0.0 0.00 0.00 0.06 73 1014.0
20260507130005 52 73 0.0 0.0 0.00 0.00 0.06 76 1014.0
20260507125004 53 75 0.0 4.0 0.00 0.00 0.06 78 1014.1
20260507124004 53 336 0.0 0.0 0.00 0.00 0.06 78 1013.9
20260507123003 53 336 0.0 0.0 0.00 0.00 0.06 77 1013.8
20260507122004 53 336 0.0 0.0 0.00 0.00 0.06 77 1013.9
20260507121004 53 336 0.0 0.0 0.00 0.00 0.06 77 1013.8
20260507120005 53 336 0.0 0.0 0.00 0.00 0.06 77 1013.8
20260507114004 53 336 0.0 0.0 0.00 0.00 0.06 77 1013.7
20260507113005 52 336 0.0 0.0 0.00 0.00 0.06 76 1013.6
20260507112009 52 336 0.0 0.0 0.00 0.00 0.06 76 1013.5
20260507111003 52 336 0.0 0.0 0.00 0.00 0.06 75 1013.4
20260507110004 52 338 0.0 0.0 0.00 0.00 0.06 75 1013.4
20260507105004 52 339 0.0 0.0 0.00 0.00 0.06 74 1013.3
20260507104004 52 340 0.0 0.0 0.00 0.00 0.06 74 1013.1
20260507103003 52 340 0.0 0.0 0.00 0.00 0.06 74 1013.0
20260507102006 52 340 0.0 0.0 0.00 0.00 0.06 74 1013.0
20260507101004 52 340 0.0 0.0 0.00 0.00 0.06 73 1012.9
20260507100005 52 340 0.0 0.0 0.00 0.00 0.06 73 1013.0
20260507095003 52 340 0.0 0.0 0.00 0.00 0.06 73 1012.9
20260507094004 52 340 0.0 0.0 0.00 0.00 0.06 73 1012.7
20260507093004 52 340 0.0 0.0 0.00 0.00 0.06 73 1012.9
20260507092003 52 340 0.0 0.0 0.00 0.00 0.06 73 1012.7
20260507091004 52 340 0.0 0.0 0.00 0.00 0.06 73 1012.6
20260507090004 52 340 0.0 1.0 0.00 0.00 0.06 73 1012.5
20260507085003 52 340 0.0 0.0 0.00 0.00 0.06 73 1012.3
20260507084003 53 340 0.0 2.0 0.00 0.00 0.06 73 1012.0
20260507083004 53 339 0.0 2.0 0.00 0.00 0.06 73 1012.2
20260507082004 53 339 0.0 4.0 0.00 0.00 0.06 73 1012.1
20260507080004 53 327 0.0 1.0 0.00 0.00 0.06 73 1012.1
20260507075003 54 327 0.0 0.0 0.00 0.00 0.06 73 1012.1
20260507074003 54 327 0.0 2.0 0.00 0.00 0.06 72 1011.9
20260507073004 54 325 0.0 5.0 0.00 0.00 0.06 72 1012.3
20260507072004 54 51 1.0 4.0 0.00 0.00 0.06 72 1012.2
20260507071004 54 67 0.0 2.0 0.00 0.00 0.06 72 1012.4
20260507070007 55 67 1.0 5.0 0.00 0.00 0.06 72 1012.2
20260507065004 55 63 1.0 5.0 0.00 0.00 0.06 71 1012.5
20260507064004 56 9 0.0 1.0 0.00 0.00 0.06 71 1012.5
20260507063004 56 331 0.0 4.0 0.00 0.00 0.06 71 1012.4
20260507062004 57 296 0.0 2.0 0.00 0.00 0.05 70 1012.6
20260507060004 58 63 0.0 4.0 0.00 0.00 0.05 70 1012.0
20260507055004 58 63 2.0 5.0 0.00 0.00 0.05 69 1012.3
20260507054004 59 36 4.0 4.0 0.00 0.00 0.02 68 1012.5
20260507053004 59 275 0.0 5.0 0.00 0.00 0.01 67 1012.3